When you browse on this site, cookies collect data to enhance your experience and personalize the content and advertising you see.
Visit our Privacy Policy to learn more. By continuing to use the site, you agree to this use of cookies and data.
  • In Österreich
  • Länderverzeichnis
  • Für 7 Tage
  • Wassertemperatur
  • Satellitenkarten
  • Wetterkarte
  • News
  • Widgets
  • user-avatar
    Anmelden

    Stündliche Wetter Bukawu

    Heute, 19 Januar, Samstag

    Zeit Temperatur Niederschläge Wind Luftdruck Luftfeuchtigkeit
    00:00 +23°C° 0 mm 0 m/S 688 mmHg 53%
    01:00 +22°C° 0 mm 0 m/S 688 mmHg 56%
    02:00 +21°C° 0 mm 0 m/S 688 mmHg 62%
    03:00 +20°C° 0 mm 0 m/S 688 mmHg 65%
    04:00 +20°C° 0 mm 0 m/S 688 mmHg 68%
    05:00 +19°C° 0 mm 0 m/S 688 mmHg 71%
    06:00 +21°C° 0 mm 0 m/S 689 mmHg 66%
    07:00 +23°C° 0 mm 0 m/S 689 mmHg 61%
    08:00 +25°C° 0 mm 0 m/S 690 mmHg 57%
    09:00 +29°C° 0 mm 0 m/S 690 mmHg 48%
    10:00 +32°C° 0 mm 0 m/S 691 mmHg 38%
    11:00 +35°C° 0 mm 0 m/S 691 mmHg 29%
    12:00 +35°C° 0 mm 0 m/S 690 mmHg 27%
    13:00 +35°C° 0 mm 0 m/S 689 mmHg 25%
    14:00 +35°C° 0 mm 0 m/S 689 mmHg 26%
    15:00 +34°C° 0 mm 0 m/S 688 mmHg 27%
    16:00 +33°C° 0 mm 0 m/S 688 mmHg 29%
    17:00 +32°C° 0 mm 0 m/S 687 mmHg 30%
    18:00 +31°C° 0 mm 1 m/S 687 mmHg 38%
    19:00 +28°C° 0 mm 1 m/S 687 mmHg 45%
    20:00 +26°C° 0 mm 1 m/S 687 mmHg 52%
    21:00 +25°C° 0 mm 1 m/S 687 mmHg 55%
    22:00 +24°C° 0 mm 1 m/S 688 mmHg 57%
    23:00 +24°C° 0 mm 1 m/S 688 mmHg 60%

    Morgen, 20 Januar, Sonntag

    Zeit Temperatur Niederschläge Wind Luftdruck Luftfeuchtigkeit
    00:00 +24°C° 0 mm 1 m/S 688 mmHg 61%
    01:00 +24°C° 0 mm 1 m/S 688 mmHg 62%
    02:00 +24°C° 0 mm 1 m/S 688 mmHg 63%
    03:00 +23°C° 0 mm 1 m/S 688 mmHg 65%
    04:00 +21°C° 0 mm 0 m/S 688 mmHg 66%
    05:00 +21°C° 0 mm 0 m/S 688 mmHg 68%
    06:00 +22°C° 0 mm 0 m/S 689 mmHg 66%
    07:00 +23°C° 0 mm 0 m/S 689 mmHg 63%
    08:00 +26°C° 0 mm 1 m/S 690 mmHg 61%
    09:00 +28°C° 0 mm 1 m/S 690 mmHg 52%
    10:00 +31°C° 0 mm 1 m/S 690 mmHg 43%
    11:00 +34°C° 0 mm 2 m/S 691 mmHg 35%
    12:00 +35°C° 0 mm 2 m/S 690 mmHg 31%
    13:00 +36°C° 0 mm 2 m/S 689 mmHg 28%
    14:00 +37°C° 0 mm 2 m/S 689 mmHg 25%
    15:00 +35°C° 0 mm 1 m/S 688 mmHg 26%
    16:00 +34°C° 0 mm 1 m/S 688 mmHg 28%
    17:00 +34°C° 0 mm 1 m/S 687 mmHg 29%
    18:00 +31°C° 0 mm 1 m/S 688 mmHg 36%
    19:00 +28°C° 0 mm 1 m/S 688 mmHg 43%
    20:00 +25°C° 0 mm 1 m/S 688 mmHg 49%
    21:00 +25°C° 0 mm 1 m/S 688 mmHg 51%
    22:00 +24°C° 0 mm 1 m/S 688 mmHg 53%
    23:00 +22°C° 0 mm 0 m/S 689 mmHg 54%

    übermorgen, 21 Januar, Montag

    Zeit Temperatur Niederschläge Wind Luftdruck Luftfeuchtigkeit
    00:00 +24°C° 0 mm 1 m/S 689 mmHg 55%
    01:00 +24°C° 0 mm 1 m/S 688 mmHg 56%
    02:00 +24°C° 0 mm 1 m/S 688 mmHg 57%
    03:00 +24°C° 0 mm 1 m/S 688 mmHg 60%
    04:00 +24°C° 0 mm 1 m/S 689 mmHg 62%
    05:00 +22°C° 0 mm 0 m/S 689 mmHg 64%
    06:00 +25°C° 0 mm 1 m/S 689 mmHg 63%
    07:00 +26°C° 0 mm 1 m/S 690 mmHg 61%
    08:00 +27°C° 0 mm 1 m/S 691 mmHg 60%
    09:00 +30°C° 0 mm 1 m/S 691 mmHg 50%
    10:00 +33°C° 0 mm 1 m/S 691 mmHg 40%
    11:00 +35°C° 0 mm 0 m/S 691 mmHg 29%
    12:00 +37°C° 0 mm 1 m/S 690 mmHg 28%
    13:00 +36°C° 0 mm 1 m/S 689 mmHg 26%
    14:00 +36°C° 0 mm 1 m/S 688 mmHg 24%
    15:00 +36°C° 0 mm 1 m/S 688 mmHg 24%
    16:00 +34°C° 0 mm 0 m/S 687 mmHg 25%
    17:00 +33°C° 0 mm 0 m/S 687 mmHg 25%
    18:00 +31°C° 0 mm 0 m/S 687 mmHg 31%
    19:00 +30°C° 0 mm 1 m/S 687 mmHg 37%
    20:00 +28°C° 0 mm 1 m/S 687 mmHg 43%
    21:00 +27°C° 0 mm 1 m/S 687 mmHg 49%
    22:00 +25°C° 0 mm 1 m/S 688 mmHg 55%
    23:00 +24°C° 0 mm 1 m/S 688 mmHg 61%

    22 Januar, Dienstag

    Zeit Temperatur Niederschläge Wind Luftdruck Luftfeuchtigkeit
    00:00 +24°C° 0 mm 1 m/S 688 mmHg 63%
    01:00 +23°C° 0 mm 1 m/S 687 mmHg 65%
    02:00 +23°C° 0 mm 1 m/S 687 mmHg 66%
    03:00 +22°C° 0 mm 1 m/S 687 mmHg 68%
    04:00 +22°C° 0 mm 1 m/S 687 mmHg 70%
    05:00 +22°C° 0 mm 1 m/S 687 mmHg 72%
    06:00 +23°C° 0 mm 1 m/S 688 mmHg 67%
    07:00 +23°C° 0 mm 0 m/S 688 mmHg 63%
    08:00 +24°C° 0 mm 0 m/S 689 mmHg 59%
    09:00 +28°C° 0 mm 0 m/S 689 mmHg 49%
    10:00 +31°C° 0 mm 0 m/S 690 mmHg 38%
    11:00 +35°C° 0 mm 0 m/S 690 mmHg 28%
    12:00 +37°C° 0 mm 1 m/S 689 mmHg 25%
    13:00 +39°C° 0 mm 1 m/S 688 mmHg 21%
    14:00 +39°C° 0 mm 2 m/S 688 mmHg 17%
    15:00 +37°C° 0 mm 1 m/S 687 mmHg 21%
    16:00 +35°C° 0 mm 1 m/S 686 mmHg 26%
    17:00 +33°C° 0 mm 1 m/S 686 mmHg 30%
    18:00 +31°C° 0 mm 1 m/S 686 mmHg 37%
    19:00 +29°C° 0 mm 1 m/S 686 mmHg 45%
    20:00 +26°C° 0 mm 1 m/S 686 mmHg 52%
    21:00 +26°C° 0 mm 1 m/S 686 mmHg 54%
    22:00 +25°C° 0 mm 1 m/S 686 mmHg 56%
    23:00 +25°C° 0 mm 1 m/S 687 mmHg 57%

    23 Januar, Mittwoch

    Zeit Temperatur Niederschläge Wind Luftdruck Luftfeuchtigkeit
    00:00 +24°C° 0 mm 1 m/S 686 mmHg 59%
    01:00 +24°C° 0 mm 1 m/S 686 mmHg 60%
    02:00 +21°C° 0 mm 0 m/S 685 mmHg 61%
    03:00 +21°C° 0 mm 0 m/S 686 mmHg 63%
    04:00 +22°C° 0 mm 1 m/S 686 mmHg 65%
    05:00 +22°C° 0 mm 1 m/S 686 mmHg 67%
    06:00 +21°C° 0 mm 0 m/S 687 mmHg 62%
    07:00 +23°C° 0 mm 0 m/S 688 mmHg 58%
    08:00 +24°C° 0 mm 0 m/S 689 mmHg 54%
    09:00 +28°C° 0 mm 0 m/S 689 mmHg 45%
    10:00 +31°C° 0 mm 0 m/S 689 mmHg 36%
    11:00 +35°C° 0 mm 0 m/S 690 mmHg 27%
    12:00 +39°C° 0 mm 1 m/S 689 mmHg 23%
    13:00 +39°C° 0 mm 1 m/S 688 mmHg 19%
    14:00 +40°C° 0 mm 1 m/S 687 mmHg 15%
    15:00 +39°C° 0 mm 1 m/S 686 mmHg 16%
    16:00 +39°C° 0 mm 1 m/S 686 mmHg 17%
    17:00 +35°C° 0 mm 0 m/S 686 mmHg 18%
    18:00 +32°C° 0 mm 0 m/S 686 mmHg 22%
    19:00 +30°C° 0 mm 0 m/S 686 mmHg 26%
    20:00 +27°C° 0 mm 0 m/S 686 mmHg 31%
    21:00 +26°C° 0 mm 0 m/S 686 mmHg 34%
    22:00 +25°C° 0 mm 0 m/S 687 mmHg 38%
    23:00 +24°C° 0 mm 0 m/S 687 mmHg 41%

    24 Januar, Donnerstag

    Zeit Temperatur Niederschläge Wind Luftdruck Luftfeuchtigkeit
    00:00 +23°C° 0 mm 0 m/S 686 mmHg 46%
    01:00 +22°C° 0 mm 0 m/S 686 mmHg 50%
    02:00 +21°C° 0 mm 0 m/S 686 mmHg 55%
    03:00 +21°C° 0 mm 0 m/S 686 mmHg 57%
    04:00 +20°C° 0 mm 0 m/S 686 mmHg 59%
    05:00 +22°C° 0 mm 1 m/S 687 mmHg 62%
    06:00 +23°C° 0 mm 1 m/S 687 mmHg 59%
    07:00 +25°C° 0 mm 1 m/S 688 mmHg 56%
    08:00 +26°C° 0 mm 1 m/S 689 mmHg 53%
    09:00 +29°C° 0 mm 1 m/S 689 mmHg 48%
    10:00 +32°C° 0 mm 1 m/S 689 mmHg 42%
    11:00 +36°C° 0 mm 2 m/S 690 mmHg 37%
    12:00 +35°C° 0 mm 1 m/S 689 mmHg 32%
    13:00 +36°C° 0 mm 1 m/S 688 mmHg 27%
    14:00 +37°C° 0 mm 1 m/S 687 mmHg 22%
    15:00 +34°C° 0.1 mm 1 m/S 686 mmHg 32%
    16:00 +31°C° 0.1 mm 1 m/S 686 mmHg 43%
    17:00 +27°C° 0.1 mm 1 m/S 685 mmHg 54%
    18:00 +26°C° 0 mm 1 m/S 685 mmHg 58%
    19:00 +25°C° 0 mm 1 m/S 686 mmHg 62%
    20:00 +24°C° 0 mm 1 m/S 686 mmHg 66%
    21:00 +24°C° 0 mm 1 m/S 686 mmHg 66%
    22:00 +23°C° 0 mm 1 m/S 686 mmHg 65%
    23:00 +23°C° 0 mm 1 m/S 687 mmHg 65%
    Mehr zeigen